Wind_Speed
5 9 12 13 15 16 18 19 21 21 20 19 20 25 28 30 32 33 33 29 27 35 32 28 26 28 27 23 22 17 20 18 17 13 10 8 12 14 15 16 19 18 21
7 11 16 18 18 18 19 20 21 23 22 21 21 25 27 29 31 30 30 27 31 34 34 31 30 29 25 25 23 20 17 15 23 8 8 3 3 11 16 17 22 22 15
7 10 13 17 20 23 23 23 23 23 24 23 23 24 28 27 24 28 29 34 32 33 33 32 31 27 25 25 22 22 21 15 22 20 8 3 4 3 8 19 16 20 20
8 10 11 15 19 20 23 24 23 24 24 23 23 24 28 28 32 31 33 32 34 36 36 37 37 32 28 25 24 24 22 20 20 19 24 12 8 5 3 9 21 22 26
9 11 13 16 18 20 24 25 23 25 26 24 23 26 29 32 30 26 28 29 35 40 38 38 37 40 36 31 26 24 26 25 22 23 18 16 12 10 3 3 7 19 26
11 12 15 17 18 21 22 24 24 27 26 25 25 27 32 35 30 27 26 27 31 36 39 37 34 33 30 31 33 31 27 26 24 26 21 23 13 14 8 3 9 12 14
12 13 16 18 22 24 26 26 25 30 29 28 27 26 32 37 31 30 24 22 27 28 35 37 36 39 37 33 34 29 29 28 28 26 25 26 24 18 19 11 7 4 6
12 15 16 19 22 25 27 28 29 33 35 32 31 28 27 31 29 26 21 24 25 29 27 36 41 32 39 29 29 29 28 27 29 28 28 25 26 25 23 17 9 5 5
12 15 17 21 24 25 28 29 29 32 33 33 34 29 22 25 21 22 23 25 26 26 25 26 25 24 22 29 32 30 26 24 29 29 30 28 26 26 28 26 17 14 5
13 14 16 21 23 24 26 28 27 29 33 35 33 31 12 16 19 25 24 27 26 22 22 22 21 24 30 31 31 24 24 26 27 26 27 26 25 24 27 28 27 22 13
13 13 14 21 23 24 26 28 32 34 36 36 35 32 9 13 17 21 21 27 25 25 28 25 23 25 23 25 23 23 23 23 25 25 26 27 27 26 26 26 26 24 23
11 12 14 21 24 25 28 29 30 32 34 33 30 27 19 11 14 20 25 28 27 27 29 35 28 18 22 20 20 21 20 24 25 23 25 26 27 27 26 25 24 24 23
11 12 13 16 20 24 27 30 32 31 37 33 30 26 25 20 15 4 15 22 21 24 23 23 27 27 21 20 22 24 25 25 24 25 24 24 25 26 26 29 27 27 26
10 12 12 14 20 23 26 29 31 32 35 26 25 26 27 24 20 12 3 12 16 16 18 19 23 25 23 21 23 23 21 21 18 18 19 20 21 25 27 29 30 29 27
10 11 12 13 19 23 25 28 30 31 29 29 33 32 27 30 20 16 12 7 11 15 19 24 26 26 24 19 18 19 18 16 15 17 20 20 23 27 30 30 29 29 30
10 12 13 15 18 22 24 25 28 30 29 30 28 26 32 26 24 22 18 19 12 12 19 24 22 20 15 14 18 16 13 14 13 13 11 11 14 21 29 33 31 34 31
10 11 12 14 17 22 22 23 24 25 28 28 30 32 30 27 29 26 25 26 27 24 18 19 23 19 12 8 10 14 12 11 9 6 4 4 5 7 12 27 27 29 29
9 11 13 15 18 20 21 21 22 24 25 28 31 33 33 32 31 26 26 28 29 32 31 28 23 22 17 12 11 13 12 12 10 8 6 4 4 5 12 21 21 17 18
9 11 13 14 17 20 20 20 23 23 26 28 28 29 30 29 29 30 27 26 28 32 34 32 23 29 23 15 16 16 18 18 18 15 12 9 8 8 13 20 26 25 24
10 12 12 14 19 21 20 21 23 24 26 26 25 26 27 29 28 27 28 26 27 32 33 37 29 32 29 21 20 19 21 23 21 21 20 17 14 11 12 18 21 27 19
11 11 13 17 19 18 20 22 22 24 22 25 27 27 29 28 28 27 27 27 28 31 34 33 34 35 34 31 24 21 24 22 22 22 24 25 20 19 19 21 23 25 24
13 13 15 18 19 20 20 21 22 22 23 24 25 26 27 28 28 27 28 28 25 26 25 24 28 30 33 29 31 29 28 26 28 24 25 26 27 29 29 30 26 29 30
13 14 15 17 19 20 20 21 20 18 19 22 24 25 27 27 27 28 27 24 26 24 23 21 20 21 23 25 31 30 29 30 31 28 23 23 26 28 32 28 28 28 30
15 15 17 18 19 20 21 20 19 17 17 19 19 20 23 27 30 26 27 27 24 21 22 21 20 21 21 20 22 19 17 23 25 27 29 29 31 33 31 30 29 27 28
16 16 16 17 19 19 20 21 21 18 17 17 17 18 18 19 20 29 32 27 31 28 22 22 22 19 21 23 20 15 13 15 16 15 15 16 17 19 19 20 20 19 19
14 15 16 16 17 18 20 21 22 21 18 17 17 17 16 15 15 14 17 25 26 27 26 24 19 19 19 18 18 15 13 14 12 12 14 15 15 16 15 15 16 15 15
Wind_Direction
341 353 355 349 340 333 323 316 310 309 306 291 271 243 235 229 227 226 226 217 213 208 204 206 205 206 201 197 199 199 199 195 193 175 183 199 212 211 216 221 232 242 239
352 357 353 349 346 337 331 320 311 308 303 291 276 264 242 238 234 230 225 216 214 206 201 202 203 201 197 193 196 194 188 194 192 165 143 185 232 214 217 218 221 232 247
359 357 353 347 340 336 333 325 315 308 303 293 280 268 257 243 229 226 222 217 211 207 198 200 200 198 198 195 192 192 190 183 190 194 175 173 204 129 204 218 215 234 235
4 357 348 344 340 335 329 325 318 311 306 298 283 263 258 235 228 227 217 214 203 202 200 201 201 198 192 194 194 201 200 198 191 199 212 229 164 186 173 205 220 220 227
4 356 351 341 334 338 331 326 323 316 310 301 283 266 254 246 237 230 221 211 198 200 202 203 191 193 197 200 201 200 208 207 200 200 197 212 204 217 156 168 195 210 221
360 354 348 342 339 338 336 328 331 322 312 304 289 262 259 247 233 224 219 203 195 194 200 204 193 199 188 189 204 203 209 209 210 207 205 211 204 208 193 185 194 206 208
359 351 350 346 343 340 338 335 337 322 320 311 298 274 261 237 232 228 214 196 199 191 197 193 196 201 209 202 202 195 209 210 212 208 207 212 218 219 212 213 171 165 183
360 355 352 348 342 340 340 340 342 328 326 317 308 291 256 225 226 223 213 204 204 208 203 205 202 207 206 203 197 197 207 211 215 213 212 212 217 227 223 222 181 178 174
1 357 353 354 342 346 342 341 342 330 324 325 321 312 241 216 213 213 215 212 213 213 210 208 204 198 219 196 196 194 203 208 213 218 216 214 218 219 221 220 216 199 181
1 360 357 351 343 349 344 342 348 335 335 334 331 328 230 213 211 208 208 199 207 199 186 183 181 192 203 203 186 194 202 211 214 216 217 216 222 216 218 221 226 219 203
1 358 354 352 351 351 350 347 354 349 343 340 340 346 279 219 208 199 196 193 183 181 181 188 192 194 196 195 192 200 201 210 217 215 213 215 219 219 221 220 220 224 217
2 358 358 358 355 357 354 357 354 351 344 339 344 350 6 13 196 195 188 190 184 182 177 173 179 194 201 201 203 198 206 207 208 214 218 224 225 224 222 219 222 213 213
7 2 5 359 357 0 1 358 355 350 349 344 355 359 7 12 12 249 186 185 180 185 192 197 178 186 205 207 215 214 210 209 215 217 220 221 224 223 226 221 219 215 207
15 6 4 359 359 3 8 1 357 354 347 344 3 7 7 11 6 27 97 196 197 190 187 184 164 173 190 196 203 205 209 222 222 226 230 236 237 233 232 223 214 208 197
19 8 4 3 358 5 10 5 1 353 353 1 9 9 5 21 9 35 49 90 172 172 168 157 156 160 171 188 202 207 211 215 223 235 235 242 245 248 243 228 210 200 193
21 10 6 7 360 10 7 4 3 359 360 11 11 8 21 18 25 36 40 41 96 114 158 147 144 141 144 183 197 197 205 209 208 216 228 242 257 257 242 234 211 199 189
21 8 4 5 6 12 9 8 3 3 9 12 13 14 18 22 29 39 55 48 54 55 48 108 126 114 107 139 185 190 187 176 175 183 208 226 243 208 204 214 201 192 193
18 15 6 7 14 16 15 14 13 12 15 16 18 17 20 25 28 34 46 60 57 53 44 51 74 96 84 101 134 151 135 122 110 107 102 109 126 169 167 160 162 152 165
27 22 17 21 24 23 19 21 22 21 21 19 18 18 22 27 31 31 32 49 62 64 50 46 45 67 68 85 105 118 112 101 90 87 86 87 97 128 150 135 123 115 103
23 22 24 25 33 26 28 29 26 24 20 18 21 23 27 30 31 34 38 44 58 65 63 60 41 57 60 72 92 100 99 83 75 74 76 74 89 112 132 136 126 101 103
30 31 34 37 30 27 31 32 28 27 19 23 29 30 34 34 37 39 42 44 50 59 58 58 53 50 57 58 78 91 89 81 72 67 66 71 85 93 106 115 111 105 115
36 36 42 39 32 31 34 35 32 23 24 28 34 33 36 39 39 40 42 43 45 49 52 54 54 49 55 59 67 74 85 87 80 72 74 76 78 84 93 95 93 108 107
39 39 43 45 37 34 31 30 30 30 32 34 33 34 38 39 40 42 37 39 40 45 47 50 53 52 49 55 69 80 87 91 87 86 81 81 79 79 79 81 95 100 95
42 38 41 40 37 33 33 30 23 30 36 40 38 37 40 42 40 43 45 44 39 43 43 43 47 49 46 43 53 63 68 78 82 84 85 85 89 89 88 87 86 84 89
42 42 42 41 36 34 34 30 27 25 34 40 41 39 39 43 52 51 48 51 50 51 51 50 50 47 43 43 53 61 62 73 80 84 80 72 72 75 75 76 78 80 80
42 41 42 41 35 34 33 30 29 31 32 35 37 37 42 40 41 47 57 55 59 56 55 56 58 55 56 50 52 58 68 73 70 76 74 71 72 74 77 79 80 78 81
Height
734 735 737 738 738 736 735 734 730 728 726 723 719 716 714 716 717 718 722 723 726 731 736 741 747 751 755 758 763 768 770 773 776 781 784 786 788 788 789 789 791 795 795
732 733 734 734 735 734 733 731 728 725 723 720 717 712 708 708 710 713 714 714 721 724 728 733 739 745 750 754 758 764 767 770 773 777 782 785 788 786 787 789 790 796 793
734 734 735 735 733 731 730 728 725 723 719 716 712 708 703 702 703 705 705 708 714 718 720 726 734 740 745 750 754 759 763 765 769 772 776 782 779 783 785 786 788 789 790
734 734 735 735 735 732 730 726 722 717 713 711 706 703 697 690 692 694 696 700 705 709 714 716 723 729 738 744 749 755 760 763 764 769 770 773 773 777 782 784 785 788 790
736 735 735 735 734 732 728 723 717 713 708 705 703 699 692 685 685 688 691 694 695 699 706 706 706 710 723 734 741 748 754 757 760 762 765 770 771 771 772 778 781 784 787
735 735 735 734 731 729 727 722 713 708 703 698 694 690 685 681 677 680 685 687 688 692 697 701 706 710 712 718 729 737 746 751 755 757 759 763 764 767 769 770 775 777 780
737 735 733 731 729 728 723 717 708 704 697 691 685 679 674 673 670 674 678 682 685 688 691 695 699 701 705 712 726 724 738 744 748 750 753 757 759 763 764 765 768 772 776
738 737 736 734 731 727 721 713 703 698 689 683 675 668 662 662 665 670 674 678 681 684 688 693 694 699 700 700 715 720 732 737 742 745 748 751 753 757 759 761 763 766 770
739 739 738 735 732 725 720 714 703 698 690 679 668 657 652 655 659 664 669 673 675 678 684 690 695 696 708 706 713 720 727 731 735 739 743 745 747 751 753 755 757 758 762
741 741 739 738 734 726 721 714 705 700 688 677 667 655 652 654 656 659 662 668 671 674 679 686 691 695 704 709 710 717 722 726 730 733 737 739 741 745 747 749 752 753 755
744 744 743 740 735 728 723 715 702 696 688 679 669 659 653 653 654 654 658 663 666 669 672 678 686 694 700 705 706 710 717 721 725 727 730 732 736 738 740 742 744 746 750
749 747 745 740 737 731 726 716 709 702 695 686 676 666 656 652 653 655 655 660 664 668 673 672 679 687 698 700 703 707 710 714 719 722 725 726 729 730 733 735 737 739 742
751 749 747 745 741 735 728 718 712 707 698 690 678 671 663 657 654 655 656 657 662 666 670 675 668 675 692 695 699 704 707 711 714 716 719 720 721 723 725 727 728 732 735
754 755 752 749 745 739 730 723 717 712 702 699 686 678 668 664 660 655 652 659 662 665 668 671 666 674 686 693 696 701 704 707 709 711 712 714 715 715 717 718 719 723 728
761 760 757 752 749 743 734 730 723 717 711 700 683 682 675 666 661 657 658 659 661 664 666 666 671 673 679 687 693 697 700 701 704 706 707 708 707 707 709 710 712 715 720
765 764 762 757 756 747 741 736 730 724 715 706 701 696 683 679 674 668 665 666 660 664 666 666 669 672 676 685 690 693 696 698 699 701 702 702 701 702 701 703 704 708 712
770 770 767 764 760 752 748 742 737 732 723 716 709 700 693 687 682 678 674 676 670 673 672 668 669 673 679 684 688 692 695 696 697 698 699 700 700 699 698 697 700 704 708
776 774 771 768 762 757 753 749 744 738 731 723 715 708 700 696 693 692 689 684 681 679 672 674 675 677 683 686 689 692 693 696 698 697 699 701 700 700 700 696 698 704 706
780 779 776 771 767 762 758 753 749 744 738 731 726 721 715 710 707 701 699 695 691 687 687 686 690 683 689 692 692 693 695 698 700 701 701 703 702 702 702 702 701 705 708
784 782 778 775 770 767 763 758 754 750 745 741 736 731 726 721 718 715 711 707 701 697 697 693 701 695 698 698 696 699 700 703 707 707 705 706 706 706 706 706 708 708 716
788 785 781 777 774 771 767 763 760 757 754 749 744 739 735 731 728 725 720 716 711 706 702 706 708 707 705 707 704 706 706 711 713 715 715 714 712 711 710 711 714 716 722
790 787 784 781 779 775 771 769 766 764 760 756 751 748 744 741 737 733 730 726 723 719 718 719 717 717 720 719 713 714 715 717 719 723 725 724 721 718 718 720 724 724 726
792 789 787 785 784 781 778 774 772 769 765 761 758 756 753 749 746 742 739 736 734 731 732 731 731 730 729 731 726 723 726 726 727 728 733 732 729 728 728 730 732 733 735
797 794 791 790 788 786 783 780 777 774 771 767 766 764 760 758 755 751 749 747 745 746 743 742 742 742 741 739 733 736 740 736 737 736 739 741 737 734 737 738 740 743 745
802 800 799 797 794 792 790 786 783 779 776 774 771 769 767 766 764 763 760 759 758 754 753 753 753 752 750 749 746 747 747 745 745 747 748 748 747 747 748 750 752 754 756
808 806 805 803 802 798 795 792 788 785 782 779 777 776 774 773 771 770 770 769 768 766 764 763 761 761 758 756 753 754 754 753 754 754 754 755 755 755 757 758 760 762 763